1491958801.13,13244,13.19,73288.8,-10.47,-35.17,-36.13,0,*65
1491958802.36,13245,13.19,73288.3,-10.45,-34.47,-35.59,0,*6F
1491958803.6,13246,13.19,73288.3,-10.45,-34.47,-35.65,0,*63
1491958804.86,13247,13.19,73284.3,-10.47,-34.07,-34.83,0,*6D
1491958806.12,13248,13.19,73288.0,-10.47,-34.41,-35.53,0,*6C
1491958807.39,13249,13.19,73286.5,-10.45,-34.31,-35.23,0,*6F
1491958808.61,13250,13.19,73288.5,-10.43,-34.47,-35.59,0,*6D
1491958809.85,13251,13.19,73290.0,-10.43,-34.71,-35.77,0,*65
1491958811.09,13252,13.19,73290.8,-10.43,-34.89,-35.83,0,*6A
1491958812.35,13253,13.19,73290.5,-10.43,-34.47,-35.41,0,*67
1491958813.59,13254,13.19,73288.3,-10.43,-35.07,-36.07,0,*64
1491958814.81,13255,13.19,73286.5,-10.43,-35.13,-36.19,0,*6F
1491958816.09,13256,13.19,73290.5,-10.41,-35.07,-36.01,0,*62
1491958817.32,13257,13.19,73284.3,-10.43,-35.29,-36.55,0,*6C
1491958818.56,13258,13.19,73286.0,-10.43,-35.23,-36.19,0,*61
1491958819.81,13259,13.19,73286.0,-10.43,-34.89,-35.83,0,*61
1491958821.06,13260,13.19,73286.8,-10.43,-35.13,-36.25,0,*66
1491958822.28,13261,13.19,73286.5,-10.43,-35.29,-36.43,0,*6E
1491958823.5,13262,13.19,73286.0,-10.43,-35.29,-36.43,0,*6D
1491958824.72,13263,13.19,73288.3,-10.43,-35.13,-36.19,0,*6A
1491958825.95,13264,13.19,73288.0,-10.43,-34.71,-35.77,0,*63
1491958827.22,13265,13.19,73284.5,-10.43,-34.53,-35.65,0,*61
1491958828.47,13266,13.19,73286.0,-10.43,-34.89,-35.83,0,*6D
1491958829.72,13267,13.19,73282.8,-10.43,-34.77,-35.83,0,*6D
1491958831.01,13268,13.19,73284.8,-10.41,-34.77,-35.95,0,*67
1491958832.29,13269,13.19,73286.0,-10.43,-34.95,-35.95,0,*68
1491958833.57,13270,13.19,73284.0,-10.41,-35.07,-36.19,0,*6F
1491958834.8,13271,13.19,73288.5,-10.43,-35.13,-36.37,0,*65
1491958836.08,13272,13.19,73288.8,-10.43,-35.23,-36.25,0,*66
1491958837.34,13273,13.19,73284.8,-10.43,-35.23,-36.37,0,*64
1491958838.59,13274,13.19,73286.8,-10.43,-35.23,-36.43,0,*60
1491958839.86,13275,13.19,73286.5,-10.43,-35.23,-36.25,0,*61
1491958841.11,13276,13.19,73282.8,-10.43,-34.89,-35.95,0,*6B
1491958842.33,13277,13.19,73286.8,-10.43,-35.13,-36.07,0,*60
1491958843.57,13278,13.19,73284.8,-10.43,-35.47,-36.61,0,*6E
1491958844.8,13279,13.19,73286.0,-10.45,-35.65,-36.73,0,*6A
1491958846.03,13280,13.19,73288.0,-10.43,-35.29,-36.43,0,*61
1491958847.26,13281,13.19,73284.8,-10.45,-35.47,-36.61,0,*6E
1491958848.48,13282,13.19,73284.5,-10.45,-35.47,-36.55,0,*6A
1491958849.72,13283,13.19,73282.3,-10.45,-35.77,-36.91,0,*60
1491958850.98,13284,13.19,73286.3,-10.45,-35.65,-36.91,0,*64
1491958852.24,13285,13.19,73284.8,-10.47,-35.47,-36.49,0,*62
1491958853.45,13286,13.19,73284.3,-10.45,-35.59,-36.73,0,*65
1491958854.7,13287,13.19,73286.5,-10.47,-35.65,-36.97,0,*63
1491958855.95,13288,13.19,73284.3,-10.47,-35.65,-36.85,0,*6F
1491958857.21,13289,13.19,73288.8,-10.47,-35.71,-36.79,0,*68
1491958858.46,13290,13.19,73276.5,-10.47,-35.83,-36.85,0,*6E
1491958859.72,13291,13.19,73282.8,-10.45,-35.23,-36.37,0,*6E
1491958860.99,13292,13.19,73286.3,-10.47,-34.95,-36.01,0,*66
1491958862.24,13293,13.19,73280.5,-10.45,-34.77,-35.83,0,*60
1491958863.49,13294,13.19,73282.8,-10.45,-34.89,-35.95,0,*61
1491958864.73,13295,13.19,73284.5,-10.45,-35.07,-36.19,0,*60
1491958865.97,13296,13.19,73288.5,-10.45,-35.41,-36.43,0,*6E
1491958867.19,13297,13.19,73290.5,-10.45,-35.29,-36.55,0,*66
1491958868.41,13298,13.19,73286.5,-10.45,-35.47,-36.55,0,*61
1491958869.66,13299,13.19,73288.3,-10.45,-35.65,-36.91,0,*68
1491958870.94,13300,13.19,73290.0,-10.47,-35.53,-36.79,0,*68
1491958872.15,13301,13.19,73288.8,-10.45,-35.29,-36.43,0,*6F
1491958873.4,13302,13.19,73288.8,-10.45,-35.23,-36.55,0,*61
1491958874.62,13303,13.19,73288.3,-10.45,-35.29,-36.43,0,*6D
1491958875.87,13304,13.19,73288.5,-10.45,-34.95,-36.01,0,*6A
1491958877.14,13305,13.19,73286.3,-10.45,-35.23,-36.25,0,*61
1491958878.39,13306,13.19,73286.3,-10.45,-35.23,-36.37,0,*61
1491958879.63,13307,13.19,73288.3,-10.45,-35.23,-36.19,0,*6C
1491958880.85,13308,13.19,73288.3,-10.45,-35.29,-36.55,0,*61
1491958882.09,13309,13.19,73288.3,-10.45,-35.41,-36.43,0,*69
1491958883.33,13310,13.19,73288.8,-10.45,-34.95,-36.07,0,*69
1491958884.57,13311,13.19,73292.5,-10.45,-35.13,-36.25,0,*67
1491958885.81,13312,13.19,73288.3,-10.45,-35.41,-36.55,0,*64
1491958887.07,13313,13.19,73294.3,-10.47,-35.53,-36.67,0,*65
1491958888.3,13314,13.19,73294.3,-10.47,-35.47,-36.67,0,*67
1491958889.54,13315,13.19,73292.8,-10.47,-35.13,-36.07,0,*61
1491958890.77,13316,13.19,73290.3,-10.47,-34.41,-35.47,0,*63
1491958892.02,13317,13.19,73286.0,-10.45,-34.77,-35.83,0,*6D
1491958893.27,13318,13.19,73290.5,-10.45,-34.53,-35.59,0,*63
1491958894.51,13319,13.19,73290.8,-10.45,-35.07,-36.19,0,*65
1491958895.72,13320,13.19,73288.5,-10.43,-34.89,-36.07,0,*61
1491958896.97,13321,13.19,73290.0,-10.43,-34.47,-35.65,0,*65
1491958898.21,13322,13.19,73292.8,-10.43,-34.77,-36.01,0,*64
1491958899.48,13323,13.19,73290.3,-10.41,-34.35,-35.59,0,*6F
1491958900.76,13324,13.19,73292.0,-10.43,-34.95,-35.95,0,*60
1491958902.07,13325,13.19,73292.3,-10.41,-34.95,-35.95,0,*63
1491958903.37,13326,13.19,73292.8,-10.37,-35.07,-36.13,0,*66
1491958904.68,13327,13.19,73294.8,-10.41,-35.07,-35.95,0,*6B
1491958905.93,13328,13.19,73298.5,-10.41,-34.89,-36.01,0,*6D
1491958907.21,13329,13.19,73296.5,-10.41,-34.71,-35.83,0,*62
1491958908.49,13330,13.19,73294.3,-10.41,-35.07,-36.19,0,*6A
1491958909.76,13331,13.19,73294.8,-10.37,-34.41,-35.41,0,*67
1491958911.01,13332,13.19,73294.5,-10.37,-34.47,-35.59,0,*6B
1491958912.23,13333,13.19,73294.3,-10.35,-34.77,-35.71,0,*61
1491958913.5,13334,13.19,73292.0,-10.37,-34.65,-35.71,0,*67
1491958914.73,13335,13.19,73290.8,-10.35,-34.77,-35.89,0,*60
1491958916.03,13336,13.19,73292.3,-10.37,-35.07,-36.13,0,*67
1491958917.27,13337,13.19,73294.8,-10.37,-35.17,-36.19,0,*6D
1491958918.55,13338,13.19,73296.3,-10.37,-35.41,-36.49,0,*64
1491958919.82,13339,13.19,73294.5,-10.37,-35.41,-36.55,0,*68
1491958921.09,13340,13.19,73294.8,-10.37,-35.01,-36.13,0,*60
1491958922.31,13341,13.19,73294.3,-10.35,-35.01,-36.07,0,*66
1491958923.57,13342,13.19,73298.0,-10.35,-35.35,-36.49,0,*68
1491958924.79,13343,13.19,73296.5,-10.35,-35.29,-36.43,0,*6E
1491958926.08,13344,13.19,73294.5,-10.37,-35.41,-36.49,0,*6F
1491958927.37,13345,13.19,73292.3,-10.37,-35.23,-36.49,0,*6A
1491958928.61,13346,13.19,73296.8,-10.43,-35.41,-36.55,0,*63
1491958929.85,13347,13.19,73296.3,-10.37,-35.59,-36.85,0,*65
1491958931.06,13348,13.19,73298.0,-10.35,-35.71,-36.85,0,*62
1491958932.32,13349,13.19,73292.5,-10.37,-35.71,-36.91,0,*64
1491958933.59,13350,13.19,73292.3,-10.41,-35.59,-36.79,0,*61
1491958934.85,13351,13.19,73290.5,-10.43,-35.65,-36.79,0,*6D
1491958936.09,13352,13.19,73294.5,-10.43,-35.41,-36.55,0,*66
1491958937.37,13353,13.19,73294.0,-10.41,-35.41,-36.55,0,*65
1491958938.61,13354,13.19,73294.5,-10.41,-35.59,-36.73,0,*6F
1491958939.85,13355,13.19,73296.0,-10.43,-35.59,-36.79,0,*66
1491958941.09,13356,13.19,73292.5,-10.43,-35.83,-36.97,0,*62
1491958942.33,13357,13.19,73290.5,-10.43,-35.59,-36.79,0,*64
1491958943.57,13358,13.19,73294.0,-10.43,-35.47,-36.91,0,*62
1491958944.81,13359,13.19,73292.0,-10.43,-35.59,-36.61,0,*63
1491958946.05,13360,13.19,73288.3,-10.41,-35.47,-36.73,0,*67
1491958947.31,13361,13.19,73296.0,-10.43,-35.65,-36.79,0,*6E
1491958948.56,13362,13.19,73292.8,-10.43,-35.41,-36.55,0,*65
1491958949.82,13363,13.19,73294.5,-10.43,-35.65,-36.91,0,*6A
1491958951.06,13364,13.19,73294.8,-10.43,-35.59,-36.91,0,*62
1491958952.3,13365,13.19,73292.5,-10.43,-35.59,-36.91,0,*63
1491958953.54,13366,13.19,73294.3,-10.43,-35.47,-36.61,0,*60
1491958954.79,13367,13.19,73290.0,-10.43,-34.89,-35.95,0,*6A
1491958956.07,13368,13.19,73292.5,-10.41,-35.07,-36.07,0,*68
1491958957.31,13369,13.19,73290.3,-10.43,-35.13,-36.25,0,*6E
1491958958.59,13370,13.19,73288.5,-10.41,-35.07,-36.07,0,*61
1491958959.8,13371,13.19,73290.3,-10.43,-35.13,-36.19,0,*68
1491958961.06,13372,13.19,73288.0,-10.43,-35.41,-36.61,0,*63
1491958962.33,13373,13.19,73290.3,-10.43,-35.41,-36.61,0,*62
1491958963.57,13374,13.19,73288.8,-10.43,-35.47,-36.61,0,*63
1491958964.84,13375,13.19,73288.3,-10.41,-35.47,-36.61,0,*60
1491958966.13,13376,13.19,73286.5,-10.41,-35.23,-36.37,0,*62
1491958967.37,13377,13.13,73284.5,-10.43,-35.29,-36.37,0,*6B
1491958968.59,13378,13.19,73288.5,-10.43,-35.13,-36.19,0,*61
1491958969.85,13379,13.19,73288.5,-10.43,-35.23,-36.37,0,*6F
1491958971.1,13380,13.19,73294.0,-10.43,-35.41,-36.55,0,*69
1491958972.34,13381,13.19,73288.3,-10.43,-35.13,-36.25,0,*68
1491958973.6,13382,13.19,73286.0,-10.41,-35.29,-36.55,0,*67
1491958974.84,13383,13.19,73284.5,-10.43,-35.47,-36.61,0,*6B
1491958976.07,13384,13.19,73290.5,-10.43,-35.47,-36.55,0,*6B
1491958977.31,13385,13.19,73288.3,-10.43,-35.47,-36.79,0,*64
1491958978.53,13386,13.19,73290.3,-10.43,-35.29,-36.43,0,*66
1491958979.8,13387,13.19,73288.8,-10.41,-35.47,-36.61,0,*6D
1491958981.02,13388,13.19,73286.8,-10.43,-35.47,-36.55,0,*67
1491958982.27,13389,13.19,73284.8,-10.43,-35.41,-36.55,0,*60
1491958983.51,13390,13.13,73282.5,-10.43,-35.47,-36.79,0,*60
1491958984.75,13391,13.19,73286.8,-10.43,-35.77,-36.79,0,*62
1491958986.01,13392,13.13,73282.8,-10.41,-35.29,-36.55,0,*66
1491958987.24,13393,13.19,73284.8,-10.43,-35.59,-36.79,0,*6C
1491958988.48,13394,13.19,73286.5,-10.43,-35.41,-36.43,0,*6B
1491958989.73,13395,13.19,73284.3,-10.43,-35.13,-36.25,0,*6D
1491958990.98,13396,13.19,73288.5,-10.43,-35.13,-36.25,0,*6E
1491958992.26,13397,13.19,73284.8,-10.41,-34.77,-35.95,0,*66
1491958993.55,13398,13.19,73286.5,-10.43,-34.95,-35.95,0,*67
1491958994.8,13399,13.19,73286.8,-10.43,-34.71,-35.83,0,*6B
1491958996.11,13400,13.19,73284.5,-10.41,-34.65,-35.83,0,*6B
1491958997.36,13401,13.19,73290.0,-10.41,-34.89,-36.01,0,*61
1491958998.63,13402,13.19,73288.0,-10.41,-35.13,-36.25,0,*66
1491958999.9,13403,13.19,73294.0,-10.41,-35.13,-36.37,0,*64
1491959001.15,13404,13.19,73288.3,-10.41,-35.47,-36.55,0,*66
1491959002.44,13405,13.19,73286.8,-10.41,-35.65,-36.91,0,*6F
1491959003.7,13406,13.19,73288.5,-10.41,-35.59,-36.79,0,*65
1491959004.97,13407,13.19,73290.0,-10.41,-35.13,-36.37,0,*60
1491959006.21,13408,13.19,73284.8,-10.41,-35.59,-36.73,0,*61
1491959007.47,13409,13.19,73290.0,-10.41,-35.29,-36.55,0,*63
1491959008.74,13410,13.13,73284.5,-10.41,-35.23,-36.43,0,*66
1491959010.01,13411,13.19,73290.3,-10.41,-35.29,-36.37,0,*6E
1491959011.3,13412,13.19,73290.8,-10.41,-34.77,-35.95,0,*6C
1491959012.59,13413,13.13,73288.3,-10.41,-35.23,-36.25,0,*65
1491959013.84,13414,13.19,73290.3,-10.41,-35.29,-36.73,0,*6B
1491959015.09,13415,13.19,73288.8,-10.41,-35.29,-36.43,0,*69
1491959016.37,13416,13.19,73290.3,-10.41,-34.95,-36.19,0,*63
1491959017.61,13417,13.19,73292.0,-10.43,-35.13,-36.25,0,*60
1491959018.87,13418,13.19,73290.5,-10.35,-35.01,-35.95,0,*65
1491959020.13,13419,13.19,73290.0,-10.37,-35.53,-36.73,0,*6A
1491959021.39,13420,13.19,73292.0,-10.37,-35.53,-36.73,0,*60
1491959022.64,13421,13.19,73290.8,-10.41,-35.29,-36.43,0,*6E
1491959023.91,13422,13.19,73294.3,-10.37,-35.23,-36.55,0,*61
1491959025.19,13423,13.19,73294.3,-10.37,-34.47,-35.53,0,*66
1491959026.46,13424,13.13,73288.3,-10.37,-34.25,-35.53,0,*65
1491959027.73,13425,13.19,73288.3,-10.37,-34.07,-35.23,0,*63
1491959028.97,13426,13.19,73290.0,-10.35,-34.41,-35.53,0,*67
1491959030.21,13427,13.19,73288.5,-10.35,-34.41,-35.53,0,*66
1491959031.47,13428,13.19,73288.0,-10.33,-35.17,-36.49,0,*65
1491959032.74,13429,13.19,73284.8,-10.33,-35.13,-36.25,0,*6A
1491959034.0,13430,13.19,73286.5,-10.33,-35.29,-36.61,0,*6B
1491959035.27,13431,13.19,73286.0,-10.33,-35.13,-36.25,0,*63
1491959036.56,13432,13.19,73286.3,-10.33,-34.95,-36.13,0,*6A
1491959037.84,13433,13.19,73290.8,-10.33,-35.01,-36.25,0,*62
1491959039.08,13434,13.19,73288.8,-10.33,-35.13,-36.43,0,*66
1491959040.34,13435,13.19,73290.5,-10.33,-34.41,-35.65,0,*66
1491959041.61,13436,13.19,73294.3,-10.33,-34.95,-36.07,0,*6B
1491959042.88,13437,13.19,73288.5,-10.33,-34.95,-36.07,0,*6A
1491959044.11,13438,13.19,73290.5,-10.31,-34.71,-35.89,0,*68
1491959045.38,13439,13.19,73290.3,-10.31,-35.07,-36.25,0,*6C
1491959046.65,13440,13.19,73288.8,-10.33,-35.01,-36.13,0,*63
1491959047.86,13441,13.19,73288.3,-10.31,-33.95,-35.13,0,*68
1491959049.11,13442,13.19,73288.0,-10.31,-34.59,-35.65,0,*6D
1491959050.34,13443,13.19,73288.5,-10.31,-34.35,-35.59,0,*69
1491959051.59,13444,13.19,73284.3,-10.31,-34.59,-35.65,0,*6B
1491959052.82,13445,13.19,73286.8,-10.31,-35.13,-36.37,0,*61
1491959054.03,13446,13.19,73284.8,-10.31,-35.29,-36.43,0,*68
1491959055.25,13447,13.19,73288.3,-10.31,-35.13,-36.43,0,*60
1491959056.48,13448,13.19,73288.8,-10.31,-35.41,-36.73,0,*6B
1491959057.7,13449,13.19,73284.5,-10.31,-35.29,-36.43,0,*67
1491959058.95,13450,13.19,73282.5,-10.31,-34.71,-35.83,0,*6C
1491959060.19,13451,13.19,73286.0,-10.31,-34.95,-36.07,0,*68
1491959061.43,13452,13.19,73282.8,-10.31,-34.95,-36.07,0,*6B
1491959062.7,13453,13.19,73290.5,-10.31,-35.07,-36.25,0,*60
1491959063.94,13454,13.19,73284.3,-10.29,-35.29,-36.43,0,*62
1491959065.21,13455,13.19,73288.8,-10.29,-35.41,-36.55,0,*6A
1491959066.45,13456,13.19,73288.3,-10.29,-35.13,-36.43,0,*69
1491959067.69,13457,13.13,73284.8,-10.31,-35.65,-36.73,0,*63
1491959068.95,13458,13.19,73290.3,-10.33,-35.17,-36.49,0,*62
1491959070.19,13459,13.13,73286.5,-10.31,-35.23,-36.43,0,*6C
1491959071.46,13460,13.19,73290.8,-10.33,-35.53,-36.79,0,*6A
1491959072.7,13461,13.19,73286.0,-10.31,-35.47,-36.61,0,*65
1491959073.94,13462,13.19,73288.0,-10.31,-35.13,-36.25,0,*67
1491959075.15,13463,13.19,73282.3,-10.31,-34.89,-36.19,0,*6B
1491959076.39,13464,13.19,73290.5,-10.33,-35.29,-36.67,0,*6C
1491959077.6,13465,13.19,73286.8,-10.31,-35.13,-36.43,0,*60
1491959078.85,13466,13.19,73290.5,-10.31,-34.95,-36.19,0,*63
1491959080.06,13467,13.19,73286.0,-10.31,-35.17,-36.43,0,*66
1491959081.3,13468,13.19,73290.0,-10.31,-34.95,-36.19,0,*6D
1491959082.54,13469,13.19,73288.0,-10.31,-34.95,-36.07,0,*63
1491959083.79,13470,13.19,73290.0,-10.33,-35.01,-36.31,0,*60
1491959085.01,13471,13.19,73284.3,-10.31,-34.77,-35.89,0,*63
1491959086.28,13472,13.19,73286.3,-10.31,-35.07,-36.25,0,*63
1491959087.55,13473,13.19,73284.0,-10.29,-35.29,-36.61,0,*67
1491959088.82,13474,13.19,73284.8,-10.29,-35.13,-36.25,0,*69
1491959090.04,13475,13.19,73286.8,-10.27,-35.01,-36.31,0,*60
1491959091.28,13476,13.19,73286.5,-10.31,-35.29,-36.61,0,*6B
1491959092.52,13477,13.19,73284.0,-10.29,-34.89,-36.07,0,*68
1491959093.77,13478,13.19,73286.8,-10.29,-34.77,-36.01,0,*60
1491959095.05,13479,13.19,73286.3,-10.29,-34.71,-35.83,0,*6E
1491959096.32,13480,13.19,73282.0,-10.29,-34.95,-36.07,0,*6D
1491959097.59,13481,13.19,73282.0,-10.29,-35.13,-36.25,0,*63
1491959098.84,13482,13.19,73282.0,-10.29,-35.47,-36.73,0,*62
1491959100.09,13483,13.19,73280.5,-10.31,-35.41,-36.61,0,*6F
1491959101.34,13484,13.19,73282.0,-10.31,-34.53,-35.77,0,*6E
1491959102.6,13485,13.19,73284.5,-10.29,-34.71,-36.01,0,*64
1491959103.83,13486,13.19,73284.5,-10.27,-35.17,-36.37,0,*6D
1491959105.05,13487,13.19,73280.5,-10.27,-35.01,-36.31,0,*6D
1491959106.31,13488,13.19,73282.0,-10.27,-35.07,-36.37,0,*62
1491959107.57,13489,13.19,73284.0,-10.29,-34.77,-35.89,0,*6D
1491959108.84,13490,13.19,73276.8,-10.29,-34.95,-36.19,0,*63
1491959110.11,13491,13.19,73278.0,-10.27,-34.35,-35.41,0,*68
1491959111.35,13492,13.19,73276.5,-10.27,-34.07,-35.23,0,*6E
1491959112.61,13493,13.19,73278.0,-10.27,-33.73,-34.83,0,*60
1491959113.88,13494,13.19,73278.0,-10.25,-33.89,-35.01,0,*6B
1491959115.14,13495,13.13,73274.5,-10.23,-34.19,-35.35,0,*65
1491959116.38,13496,13.19,73276.8,-10.23,-34.07,-35.35,0,*69
1491959117.62,13497,13.19,73278.0,-10.23,-34.83,-36.07,0,*66
1491959118.86,13498,13.19,73280.0,-10.23,-34.83,-36.07,0,*69
1491959120.13,13499,13.19,73280.5,-10.23,-34.95,-36.13,0,*6A
1491959121.37,13500,13.19,73276.3,-10.23,-35.17,-36.25,0,*65
1491959122.64,13501,13.19,73280.3,-10.25,-35.07,-36.31,0,*66
1491959123.9,13502,13.19,73286.3,-10.25,-34.89,-36.13,0,*62
1491959125.17,13503,13.19,73284.8,-10.23,-34.95,-36.25,0,*6D
1491959126.41,13504,13.19,73284.8,-10.23,-35.13,-36.49,0,*6F
1491959127.65,13505,13.19,73282.5,-10.25,-35.01,-36.19,0,*6E
1491959128.94,13506,13.19,73284.8,-10.25,-35.07,-36.37,0,*67
1491959130.22,13507,13.19,73280.8,-10.25,-34.71,-35.83,0,*6A
1491959131.43,13508,13.19,73282.8,-10.23,-35.17,-36.31,0,*68
1491959132.66,13509,13.19,73282.5,-10.23,-35.17,-36.49,0,*66
1491959133.91,13510,13.19,73280.5,-10.23,-35.53,-36.61,0,*64
1491959135.16,13511,13.13,73274.0,-10.25,-35.01,-36.31,0,*61
1491959136.43,13512,13.13,73278.5,-10.25,-35.23,-36.67,0,*61
1491959137.67,13513,13.19,73286.3,-10.23,-34.95,-36.07,0,*6C
1491959138.96,13514,13.19,73282.0,-10.25,-35.07,-36.37,0,*64
1491959140.23,13515,13.19,73284.0,-10.23,-34.95,-36.25,0,*6A
1491959141.45,13516,13.13,73282.5,-10.23,-34.07,-35.47,0,*65
1491959142.72,13517,13.13,73282.0,-10.25,-34.25,-35.53,0,*67
1491959143.96,13518,13.19,73286.0,-10.23,-34.35,-35.47,0,*6A
1491959145.21,13519,13.19,73284.8,-10.23,-34.77,-35.95,0,*62
1491959146.48,13520,13.19,73284.5,-10.21,-34.19,-35.47,0,*6D
1491959147.7,13521,13.19,73280.0,-10.19,-34.41,-35.47,0,*6A
1491959148.94,13522,13.19,73284.0,-10.19,-34.31,-35.59,0,*61
1491959150.17,13523,13.19,73286.8,-10.21,-35.17,-36.43,0,*66
1491959151.42,13524,13.19,73288.8,-10.19,-34.89,-36.25,0,*6C
1491959152.66,13525,13.19,73288.5,-10.19,-34.95,-36.19,0,*6F
1491959153.96,13526,13.19,73284.0,-10.21,-34.95,-36.25,0,*68
1491959155.25,13527,13.19,73286.3,-10.21,-34.83,-36.13,0,*6B
1491959156.49,13528,13.13,73282.8,-10.21,-35.17,-36.43,0,*6D
1491959157.75,13529,13.19,73290.3,-10.21,-35.17,-36.61,0,*6C
1491959159.01,13530,13.19,73290.0,-10.21,-35.17,-36.61,0,*64
1491959160.27,13531,13.19,73288.0,-10.21,-35.17,-36.49,0,*6F
1491959161.53,13532,13.19,73288.8,-10.21,-35.17,-36.49,0,*6C
1491959162.8,13533,13.19,73290.0,-10.19,-34.95,-36.25,0,*67
1491959164.09,13534,13.19,73288.0,-10.21,-35.35,-36.61,0,*60
1491959165.36,13535,13.13,73286.8,-10.21,-35.29,-36.61,0,*6C
1491959166.65,13536,13.19,73284.8,-10.21,-34.95,-36.13,0,*6C
1491959167.89,13537,13.13,73284.5,-10.21,-35.01,-36.31,0,*61
1491959169.13,13538,13.19,73284.8,-10.21,-35.17,-36.43,0,*6C
1491959170.38,13539,13.19,73286.8,-10.21,-35.01,-36.31,0,*6F
1491959171.66,13540,13.13,73286.3,-10.21,-34.77,-35.95,0,*6C
1491959172.95,13541,13.13,73284.8,-10.21,-34.83,-36.13,0,*6B
1491959174.25,13542,13.13,73286.3,-10.21,-34.95,-36.25,0,*6A
1491959175.54,13543,13.13,73284.0,-10.21,-34.95,-36.13,0,*6E
1491959176.78,13544,13.19,73290.3,-10.21,-34.77,-36.07,0,*60
1491959178.0,13545,13.19,73290.3,-10.19,-34.89,-36.19,0,*64
1491959179.24,13546,13.13,73288.0,-10.19,-34.65,-35.71,0,*68
1491959180.49,13547,13.13,73286.0,-10.21,-35.01,-36.31,0,*66
1491959181.77,13548,13.13,73290.0,-10.21,-35.35,-36.61,0,*6B
1491959183.03,13549,13.13,73290.3,-10.21,-35.17,-36.49,0,*60
1491959184.3,13550,13.13,73288.8,-10.21,-35.29,-36.49,0,*65
1491959185.6,13551,13.19,73290.8,-10.21,-34.83,-35.95,0,*67
1491959186.87,13552,13.13,73286.0,-10.19,-34.95,-36.25,0,*60
1491959188.12,13553,13.13,73284.3,-10.21,-35.01,-36.31,0,*63
1491959189.39,13554,13.13,73288.0,-10.21,-35.29,-36.49,0,*61
1491959190.66,13555,13.13,73290.0,-10.21,-34.77,-35.95,0,*68
1491959191.9,13556,13.19,73290.0,-10.21,-35.13,-36.31,0,*65
1491959193.15,13557,13.19,73294.8,-10.19,-34.13,-35.41,0,*6A
1491959194.41,13558,13.13,73294.0,-10.21,-34.41,-35.65,0,*6F
1491959195.65,13559,13.13,73288.3,-10.19,-33.83,-35.07,0,*68
1491959196.89,13560,13.19,73288.8,-10.19,-33.49,-34.59,0,*6E
1491959198.15,13561,13.19,73290.5,-10.15,-33.77,-34.95,0,*6E
1491959199.41,13562,13.19,73288.3,-10.13,-33.89,-35.17,0,*61
1491959200.68,13563,13.19,73276.5,-10.15,-34.53,-35.83,0,*6B
1491959201.93,13564,13.19,73262.8,-10.13,-34.89,-36.01,0,*64
1491959203.16,13565,13.19,73258.3,-10.09,-34.59,-35.77,0,*61
1491959204.44,13566,13.19,73258.0,-10.13,-34.65,-35.77,0,*66
1491959205.72,13567,13.19,73238.0,-10.13,-34.71,-35.95,0,*6E
1491959207.0,13568,13.13,73254.8,-10.13,-34.71,-35.95,0,*61
1491959208.24,13569,13.13,73288.8,-10.07,-35.01,-36.31,0,*6E
1491959209.54,13570,13.13,73272.8,-10.07,-34.95,-36.25,0,*6F
1491959210.79,13571,13.19,73276.0,-10.07,-34.59,-35.71,0,*6C
1491959212.07,13572,13.19,73286.0,-10.09,-34.65,-35.95,0,*64
1491959213.35,13573,13.19,73286.3,-10.09,-34.95,-36.13,0,*67
1491959214.61,13574,13.13,73276.3,-10.09,-34.65,-35.89,0,*6F
1491959215.87,13575,13.19,73286.0,-10.09,-34.65,-35.89,0,*6E
1491959217.11,13576,13.19,73280.0,-10.09,-34.83,-36.07,0,*60
1491959218.39,13577,13.13,73278.8,-10.07,-35.01,-36.25,0,*64
1491959219.6,13578,13.19,73276.0,-10.09,-35.17,-36.43,0,*62
1491959220.82,13579,13.19,73276.8,-10.09,-35.13,-36.43,0,*67
1491959222.07,13580,13.13,73276.3,-10.09,-35.29,-36.49,0,*62
1491959223.29,13581,13.19,73282.3,-10.09,-35.47,-36.67,0,*67
1491959224.51,13582,13.19,73282.0,-10.09,-35.13,-36.43,0,*63
1491959225.73,13583,13.19,73282.5,-10.09,-35.01,-36.31,0,*64
1491959227.0,13584,13.19,73280.5,-10.13,-35.01,-36.37,0,*6E
1491959228.22,13585,13.19,73286.3,-10.15,-35.29,-36.55,0,*67
1491959229.5,13586,13.13,73280.0,-10.13,-35.23,-36.49,0,*65
1491959230.78,13587,13.19,73272.5,-10.13,-34.83,-36.01,0,*63
1491959232.01,13588,13.19,73276.3,-10.15,-34.83,-36.19,0,*63
1491959233.28,13589,13.19,73274.8,-10.13,-34.83,-36.19,0,*64
1491959234.5,13590,13.19,73280.3,-10.09,-34.41,-35.71,0,*64
1491959235.78,13591,13.19,73276.5,-10.09,-34.65,-35.95,0,*69
1491959237.06,13592,13.19,73278.0,-10.13,-34.83,-36.01,0,*67
1491959238.32,13593,13.19,73278.5,-10.09,-34.65,-35.89,0,*66
1491959239.58,13594,13.13,73276.3,-10.09,-34.65,-35.77,0,*60
1491959240.82,13595,13.19,73278.8,-10.09,-34.31,-35.47,0,*63
1491959242.06,13596,13.13,73276.0,-10.07,-34.41,-35.71,0,*6C
1491959243.29,13597,13.19,73278.0,-10.09,-34.41,-35.77,0,*65
1491959244.55,13598,13.19,73268.3,-10.07,-34.83,-36.07,0,*6E
1491959245.8,13599,13.19,73272.3,-10.07,-34.77,-36.07,0,*64
1491959247.07,13600,13.19,73274.3,-10.09,-34.83,-36.13,0,*67
1491959248.31,13601,13.19,73278.3,-10.07,-35.13,-36.43,0,*65
1491959249.56,13602,13.13,73256.3,-10.07,-34.59,-35.77,0,*6D
1491959250.8,13603,13.19,73278.5,-10.09,-34.59,-35.89,0,*63
1491959252.07,13604,13.19,73276.8,-10.09,-34.95,-36.13,0,*64
1491959253.33,13605,13.19,73276.3,-10.09,-35.01,-36.25,0,*6C
1491959254.6,13606,13.19,73278.3,-10.09,-34.83,-36.13,0,*61
1491959255.87,13607,13.19,73280.0,-10.09,-34.83,-36.25,0,*65
1491959257.15,13608,13.19,73280.3,-10.09,-34.95,-36.25,0,*6D
1491959258.37,13609,13.19,73280.0,-10.09,-35.13,-36.43,0,*63
1491959259.62,13610,13.19,73286.8,-10.09,-35.29,-36.61,0,*62
1491959260.86,13611,13.19,73284.5,-10.09,-35.53,-36.67,0,*68
1491959262.07,13612,13.19,73286.3,-10.09,-35.13,-36.43,0,*69
1491959263.31,13613,13.19,73290.5,-10.09,-35.17,-36.49,0,*66
1491959264.53,13614,13.19,73286.5,-10.09,-35.13,-36.43,0,*6F
1491959265.79,13615,13.19,73286.5,-10.09,-34.77,-35.95,0,*65
1491959267.05,13616,13.19,73286.5,-10.15,-34.01,-35.07,0,*61
1491959268.31,13617,13.19,73278.8,-10.07,-33.09,-34.07,0,*6D
1491959269.57,13618,13.19,73272.8,-10.07,-32.97,-34.07,0,*64
1491959270.81,13619,13.19,73274.5,-10.05,-33.21,-34.31,0,*6E
1491959272.07,13620,13.19,73270.0,-10.03,-34.25,-35.35,0,*64
1491959273.35,13621,13.19,73290.3,-10.03,-34.53,-35.89,0,*63
1491959274.62,13622,13.19,73290.5,-10.03,-33.83,-35.35,0,*6D
1491959275.85,13623,13.19,73290.3,-10.01,-32.97,-34.07,0,*6A
1491959277.11,13624,13.19,73288.0,-9.99,-32.35,-33.43,0,*5B
1491959278.37,13625,13.19,73258.5,-9.97,-32.79,-34.31,0,*5E
1491959279.58,13626,13.19,73246.3,-9.97,-34.13,-35.29,0,*5F
1491959280.82,13627,13.13,73230.5,-9.97,-34.01,-35.17,0,*50
1491959282.03,13628,13.19,73284.5,-9.97,-34.41,-35.59,0,*51
1491959283.27,13629,13.19,73248.8,-9.97,-34.01,-35.13,0,*5A
1491959284.51,13630,13.19,73206.5,-9.95,-33.83,-35.01,0,*5E
1491959285.79,13631,13.13,73238.5,-9.95,-34.31,-35.41,0,*55
1491959287.07,13632,13.19,73276.5,-9.95,-34.31,-35.53,0,*55
1491959288.33,13633,13.13,73266.5,-9.91,-34.41,-35.83,0,*5A
1491959289.58,13634,13.19,73278.5,-9.95,-34.47,-35.89,0,*55
1491959290.87,13635,13.19,73272.8,-9.91,-34.01,-35.23,0,*52
1491959292.11,13636,13.19,73270.0,-9.91,-34.59,-36.01,0,*5F
1491959293.36,13637,13.19,73282.3,-9.91,-34.71,-36.01,0,*54